Location: Melizzano
(41.1500°N, 14.5000°E)
Time: 08:13:12
(UTC+00:00)

Meteor 1-12 Rocket - Pass Details

Date: 11 May 2021
Orbit: 854 x 927 km, 81.2° (Epoch: 20 June)

Event Time Altitude Azimuth Distance (km) Brightness Sun altitude
Rises 23:05:08 0° 349° (N) 3,532 8.5 -30.7°
Reaches altitude 10° 23:07:37 10° 349° (N) 2,576 7.6 -30.7°
Enters shadow 23:12:48 70° 339° (NNW) 939 4.4 -30.6°
